"Pseudo-MPEC" for C2UM8E2

Created 2020 May 26 11:07:07 UT using Find_Orb

Click here for an explanation of pseudo-MPECs

 
 Astrometry: 
     C2UM8E2  C2020 05 22.43095 21 23 05.77 +02 26 58.5    ~5MB7 21.6 GVNEOCPG96
     C2UM8E2  C2020 05 22.43613 21 23 06.66 +02 27 00.1    ~5MB7 21.5 GVNEOCPG96
     C2UM8E2  C2020 05 22.44648 21 23 08.61 +02 27 03.4    ~5MB7 21.1 GVNEOCPG96
     C2UM8E2  C2020 05 23.38355 21 26 06.35 +02 32 15.5    ~5N9b 22.0 GVNEOCPV06
     C2UM8E2  C2020 05 23.38556 21 26 06.77 +02 32 16.6    ~5N9b 21.9 GVNEOCPV06
     C2UM8E2  C2020 05 23.38757 21 26 07.17 +02 32 17.3    ~5N9b 21.9 GVNEOCPV06
     C2UM8E2  C2020 05 23.38958 21 26 07.48 +02 32 18.2    ~5N9b 21.6 GVNEOCPV06
     C2UM8E2  C2020 05 24.40374 21 29 20.30 +02 37 43.6    ~5OA7 23.0 GVNEOCPV06
     C2UM8E2  C2020 05 24.40611 21 29 20.73 +02 37 44.5    ~5OA7 22.2 GVNEOCPV06
     C2UM8E2  C2020 05 24.40849 21 29 21.18 +02 37 45.0    ~5OA7 21.9 GVNEOCPV06
     C2UM8E2  C2020 05 24.41087 21 29 21.67 +02 37 45.6    ~5OA7       VNEOCPV06
     C2UM8E2  C2020 05 25.38939 21 32 28.31 +02 42 48.6    ~5PA7 21.9 GVNEOCPV06
     C2UM8E2  C2020 05 25.39335 21 32 29.08 +02 42 49.9    ~5PA7 21.9 GVNEOCPV06
     C2UM8E2  C2020 05 25.39731 21 32 29.88 +02 42 50.2    ~5PA7 21.7 GVNEOCPV06
     C2UM8E2  C2020 05 26.40253 21 35 42.20 +02 47 49.1    ~5QA7 21.8 GVNEOCPV06
     C2UM8E2  C2020 05 26.40573 21 35 42.78 +02 47 50.1    ~5QA7 21.3 GVNEOCPV06
     C2UM8E2  C2020 05 26.40896 21 35 43.39 +02 47 51.1    ~5QA7 22.1 GVNEOCPV06
     C2UM8E2  C2020 05 26.41214 21 35 43.99 +02 47 52.0    ~5QA7 21.6 GVNEOCPV06

Station data:
(G96) Mt. Lemmon Survey  (N32.442754 W110.788720)  US/Arizona.  Observers T.
   A. Pruyne, B. M. Africano, E. J. Christensen, G. A. Farneth, D. C. Fuls,
   A. R. Gibbs, A. D. Grauer, H. Gröller, J. A. Johnson, R. A. Kowalski, S.
   M. Larson, G. J. Leonard, D. Rankin, R. L. Seaman, F. C. Shelly. 1.5-m
   reflector + 10K CCD.
(V06) Catalina Sky Survey-Kuiper  (N32.416847 W110.732550)  US/Arizona.
   Observers T. A. Pruyne, B. M. Africano, E. J. Christensen, G. A. Farneth,
   D. C. Fuls, A. R. Gibbs, A. D. Grauer, H. Gröller, J. A. Johnson, R. A.
   Kowalski, S. M. Larson, G. J. Leonard, D. Rankin, R. L. Seaman, F. C.
   Shelly. 1.55-m reflector + CCD.

Orbital elements:  C2UM8E2
   Perihelion 2020 Jul 2.985741 +/- 1.42 TT = 23:39:28 (JD 2459033.485741)
Epoch 2020 May 26.0 TT = JDT 2458995.5   Earth MOID: 0.3454   Ju: 0.2799
M 354.71063595 +/- 2.0              Ma: 0.0118                AutoNEOCP
n   0.13924604 +/- 0.0592           Peri.  173.21570 +/- 1.4
a   3.68649921 +/- 1.04             Node   136.17579 +/- 1.3
e   0.6314989 +/- 0.1               Incl.   17.07884 +/- 0.31
P   7.08                   H 19.9   G  0.15   U 10.8  
q 1.35847882 +/- 0.0281    Q 6.01451959 +/- 3.52
From 18 observations 2020 May 22-26; mean residual 0".33
Residuals in arcseconds: 
200522 G96  .64+  .07+    200523 V06  .40-  .60+    200525 V06  .19-  .14+    
200522 G96  .50-  .09-    200524 V06  .00   .09-    200525 V06  .60+  .77-    
200522 G96  .17-  .30-    200524 V06  .23-  .06+    200526 V06  .30+  .01+    
200523 V06  .38-  .12-    200524 V06  .19-  .20-    200526 V06  .07-  .08+    
200523 V06  .26+  .32+    200524 V06  .45+  .35-    200526 V06  .09-  .14+    
200523 V06  .60+  .36+    200525 V06  .52-  .05+    200526 V06  .10-  .11+    

Ephemerides (geocentric):
Date (UTC) HH   RA              Dec         delta   r     elong  mag " sig PA
---- -- -- --  -------------   -----------  ------ ------ -----  --- ---- ---
2020 05 26 11  21 35 52.472   +02 48 10.30  .87675 1.4271  97.8 22.1 .234  10
2020 05 26 12  21 36 00.459   +02 48 22.34  .87644 1.4270  97.8 22.1 .227  14
2020 05 26 13  21 36 08.448   +02 48 34.36  .87613 1.4268  97.8 22.1 .220  18
2020 05 26 14  21 36 16.437   +02 48 46.36  .87582 1.4267  97.8 22.1 .215  23
2020 05 26 15  21 36 24.427   +02 48 58.33  .87551 1.4265  97.8 22.1 .212  28
2020 05 26 16  21 36 32.419   +02 49 10.28  .87520 1.4264  97.8 22.1 .210  33
2020 05 26 17  21 36 40.411   +02 49 22.20  .87489 1.4262  97.8 22.1 .209  38
2020 05 26 18  21 36 48.405   +02 49 34.11  .87458 1.4261  97.9 22.1 .211  44
2020 05 26 19  21 36 56.399   +02 49 45.99  .87428 1.4259  97.9 22.1 .214  49
2020 05 26 20  21 37 04.395   +02 49 57.84  .87397 1.4258  97.9 22.1 .220  54
2020 05 26 21  21 37 12.392   +02 50 09.68  .87366 1.4256  97.9 22.1 .227  59
2020 05 26 22  21 37 20.389   +02 50 21.49  .87335 1.4255  97.9 22.1 .237  64
2020 05 26 23  21 37 28.388   +02 50 33.27  .87304 1.4254  97.9 22.1 .248  69
2020 05 27 00  21 37 36.387   +02 50 45.03  .87274 1.4252  97.9 22.1 .261  73
2020 05 27 01  21 37 44.388   +02 50 56.77  .87243 1.4251  97.9 22.1 .276  77
2020 05 27 02  21 37 52.390   +02 51 08.49  .87212 1.4249  97.9 22.1 .292  80
2020 05 27 03  21 38 00.392   +02 51 20.18  .87181 1.4248  97.9 22.1 .309  84
2020 05 27 04  21 38 08.396   +02 51 31.85  .87151 1.4246  97.9 22.1 .327  86
2020 05 27 05  21 38 16.401   +02 51 43.49  .87120 1.4245  97.9 22.1 .347  89
2020 05 27 06  21 38 24.406   +02 51 55.11  .87090 1.4243  97.9 22.1 .368  91
2020 05 27 07  21 38 32.413   +02 52 06.71  .87059 1.4242  97.9 22.1 .390  93
2020 05 27 08  21 38 40.421   +02 52 18.28  .87028 1.4241  97.9 22.1 .413  95
2020 05 27 09  21 38 48.430   +02 52 29.83  .86998 1.4239  97.9 22.1 .436  97
2020 05 27 10  21 38 56.439   +02 52 41.36  .86967 1.4238  98.0 22.1 .461  99
2020 05 27 11  21 39 04.450   +02 52 52.86  .86937 1.4236  98.0 22.1 .486 100
2020 05 27 12  21 39 12.462   +02 53 04.34  .86906 1.4235  98.0 22.1 .512 102
2020 05 27 13  21 39 20.475   +02 53 15.79  .86876 1.4233  98.0 22.1 .539 103
2020 05 27 14  21 39 28.488   +02 53 27.22  .86845 1.4232  98.0 22.1 .567 104
2020 05 27 15  21 39 36.503   +02 53 38.62  .86815 1.4231  98.0 22.1 .595 105
2020 05 27 16  21 39 44.519   +02 53 50.01  .86784 1.4229  98.0 22.1 .624 106
2020 05 27 17  21 39 52.536   +02 54 01.36  .86754 1.4228  98.0 22.1 .653 107
2020 05 27 18  21 40 00.553   +02 54 12.70  .86723 1.4226  98.0 22.1 .684 107
2020 05 27 19  21 40 08.572   +02 54 24.01  .86693 1.4225  98.0 22.1 .715 108
2020 05 27 20  21 40 16.592   +02 54 35.29  .86663 1.4223  98.0 22.1 .746 109
2020 05 27 21  21 40 24.613   +02 54 46.55  .86632 1.4222  98.0 22.1 .778 110
2020 05 27 22  21 40 32.635   +02 54 57.79  .86602 1.4221  98.0 22.1 .811 110
2020 05 27 23  21 40 40.657   +02 55 09.00  .86572 1.4219  98.0 22.1 .845 111
2020 05 28 00  21 40 48.681   +02 55 20.18  .86541 1.4218  98.0 22.1 .879 111
2020 05 28 01  21 40 56.706   +02 55 31.35  .86511 1.4216  98.1 22.1 .914 112
2020 05 28 02  21 41 04.732   +02 55 42.49  .86481 1.4215  98.1 22.1 .949 112
2020 05 28 03  21 41 12.758   +02 55 53.60  .86451 1.4214  98.1 22.1 .985 112
2020 05 28 04  21 41 20.786   +02 56 04.69  .86420 1.4212  98.1 22.1 1.02 113
2020 05 28 05  21 41 28.815   +02 56 15.75  .86390 1.4211  98.1 22.1 1.06 113
2020 05 28 06  21 41 36.845   +02 56 26.79  .86360 1.4209  98.1 22.1 1.10 113
2020 05 28 07  21 41 44.875   +02 56 37.81  .86330 1.4208  98.1 22.1 1.14 114
2020 05 28 08  21 41 52.907   +02 56 48.80  .86300 1.4206  98.1 22.1 1.17 114
2020 05 28 09  21 42 00.940   +02 56 59.77  .86270 1.4205  98.1 22.1 1.21 114
2020 05 28 10  21 42 08.973   +02 57 10.71  .86239 1.4204  98.1 22.1 1.25 115